Agua de Enmedio, Mexico

6:20 AM MDT on October 23, 2017 (GMT -0600)
Agua de Enmedio

Weather History for 76405 - September, 2013

Change the Weather History Date:

Saturday, September 7, 2013

  Actual Average Record
Temperature  
Mean Temperature 84 °F -  
Max Temperature 92 °F 93 °F - ()
Min Temperature 77 °F 72 °F - ()
Cooling Degree Days 20    
Growing Degree Days 34 (Base 50)    
Moisture  
Dew Point 73 °F    
Average Humidity 73    
Maximum Humidity 90    
Minimum Humidity 46    
Precipitation  
Precipitation 1.97 in - - ()
Sea Level Pressure  
Sea Level Pressure 29.83 in    
Wind  
Wind Speed 5 mph ()    
Max Wind Speed 10 mph    
Max Gust Speed -    
Visibility 10.6 miles    
Events Rain    
T = Trace of Precipitation, MM = Missing Value Source: Averaged Metar Reports

Daily Weather History Graph

Daily Weather History Graph

Search for Another Location

Airport or City:

Trip Planner

Search our weather history database for the weather conditions in past years. The results will help you decide how hot, cold, wet, or windy it might be!

Date:

Astronomy

Sep. 07, 2013 Rise Set
Actual Time 7:05 AM MDT 7:33 PM MDT
Civil Twilight 6:42 AM MDT 7:56 PM MDT
Nautical Twilight 6:15 AM MDT 8:23 PM MDT
Astronomical Twilight 5:48 AM MDT 8:50 PM MDT
Moon 9:02 AM MDT (9/7) 8:57 PM MDT (9/7)
Length of Visible Light 13h 13m
Length of Day
12h 28m
Waxing Crescent, 5% of the Moon is Illuminated
Sep 7
Waxing Crescent
Sep 12
First Quarter
Sep 19
Full
Sep 26
Last Quarter
Oct 4
New

Hourly Weather History & Observations

Time (MDT) Temp. Heat Index Dew Point Humidity Pressure Visibility Wind Dir Wind Speed Gust Speed Precip Events Conditions
2:50 AM 82 °F - 74 °F 70% 29.79 in 2 mi SSE 2.2 mph - -   Partly Cloudy
5:47 AM 78.8 °F - 73.4 °F 83% 29.85 in 10.0 mi SSE 4.6 mph - N/A   Mostly Cloudy
5:50 AM 80 °F - 75 °F 81% 29.80 in 2 mi SE 4.5 mph - -   Partly Cloudy
6:45 AM 78.8 °F - 73.4 °F 83% 29.83 in 10.0 mi ESE 5.8 mph - N/A   Mostly Cloudy
7:45 AM 78.8 °F - 73.4 °F 83% 29.84 in 10.0 mi Calm Calm - N/A   Overcast
8:41 AM 82.4 °F 88.2 °F 73.4 °F 74% 29.89 in 10.0 mi SSE 5.8 mph - N/A   Overcast
8:50 AM 84 °F - 75 °F 68% 29.84 in 16 mi East 2.2 mph - -   Scattered Clouds
9:44 AM 84.2 °F 89.6 °F 71.6 °F 66% 29.85 in 10.0 mi SE 5.8 mph - N/A   Mostly Cloudy
10:50 AM 86.0 °F 91.8 °F 71.6 °F 62% 29.85 in 10.0 mi South 10.4 mph - N/A   Mostly Cloudy
11:40 AM 86.0 °F 91.8 °F 71.6 °F 62% 29.90 in 12.0 mi SSW 8.1 mph - N/A   Mostly Cloudy
11:50 AM 88 °F - 74 °F 55% 29.85 in 19 mi SW 4.5 mph - -   Scattered Clouds
12:46 PM 87.8 °F 92.6 °F 69.8 °F 55% 29.84 in 12.0 mi SSW 4.6 mph - N/A   Mostly Cloudy
1:40 PM 87.8 °F 93.8 °F 71.6 °F 58% 29.82 in 12.0 mi WSW 8.1 mph - N/A   Overcast
2:49 PM 84.2 °F 90.9 °F 73.4 °F 70% 29.91 in 10.0 mi SE 6.9 mph - N/A   Overcast
2:50 PM 91 °F - 72 °F 46% 29.74 in 19 mi SW 2.2 mph - - Rain Light Drizzle
3:42 PM 84.2 °F 90.9 °F 73.4 °F 70% 29.78 in 10.0 mi NE 9.2 mph - N/A   Overcast
4:52 PM 82.4 °F 88.2 °F 73.4 °F 74% 29.77 in 10.0 mi ENE 9.2 mph - N/A   Overcast
5:45 PM 82.4 °F 88.2 °F 73.4 °F 74% 29.90 in 10.0 mi East 6.9 mph - N/A   Overcast
5:50 PM 82 °F - 76 °F 79% 29.77 in 19 mi East 6.7 mph - -   Partly Cloudy
6:00 PM 82 °F - 76 °F 79% 29.77 in 19 mi East 6.7 mph - -  
6:43 PM 82.4 °F 88.2 °F 73.4 °F 74% 29.78 in 10.0 mi East 6.9 mph - N/A   Overcast
7:45 PM 80.6 °F 85.4 °F 73.4 °F 79% 29.79 in 10.0 mi ESE 9.2 mph - N/A   Overcast
8:46 PM 80.6 °F 85.4 °F 73.4 °F 79% 29.93 in 10.0 mi ESE 6.9 mph - N/A   Mostly Cloudy
8:50 PM 80 °F - 76 °F 84% 29.82 in 2 mi East 8.9 mph - -   Mostly Cloudy
9:50 PM 78.8 °F - 73.4 °F 83% 29.85 in 10.0 mi East 5.8 mph - N/A   Mostly Cloudy
10:40 PM 77.0 °F - 73.4 °F 89% 29.86 in 10.0 mi SSW 5.8 mph - N/A   Mostly Cloudy
11:50 PM 78 °F - 76 °F 90% 29.84 in 2 mi South 2.2 mph - -   Partly Cloudy